Find Starlink 5769

NORAD ID: 55585 Int'l Des: 2023-020 Owner: SPXS Country: US Constellation: starlink operational
LEOCIRCULAR

現在のビュー

3D地球を読み込み中...

About Starlink 5769

Starlink 5769 (NORAD 55585) is a starlink constellation satellite (v1.5) launched Feb 12, 2023 by SPXS of US. It operates in LEO, CIRCULAR orbit with a mass of 305.00 kg.

Starlink 5769について

説明を読み込み中...

次回通過

Passes for default location (London). Set your location on the main map for personalized predictions.

高度履歴

Loading altitude history...

軌道要素

1 55585U 23020S 26171.33243046 -.00000414 00000-0 -55434-5 0 9994
2 55585 43.0015 134.8751 0000739 251.6964 108.3808 15.27575967184739
Epoch: Jun 20, 2026 • Age: 22 hours

現在のステータス

高度 494.9 km
速度 7.62 km/s
衛星直下点 -40.66°S, 69.49°E
打ち上げ日 Feb 12, 2023
運用期間 3.3 years
タイプ internet

技術仕様

分類 Payload
質量 305.00 kg
乾燥質量 290.00 kg
総質量 305.00 kg
長さ 0.20 m
直径 2.80 m
スパン 9.00 m
形状 Box + pan
製造者 SPXS
バスタイプ Starlink
フェーズステータス In Orbit
所有者/国 SPXS/US

Most Searched